Location: Chevoux
(46.3801°N, 4.9476°E)
Time: 22:31:33
(UTC+00:00)

BREEZE-M DEB (TANK) - Pass Details

Date: 28 January 2021
Orbit: 311 x 13784 km, 49.6° (Epoch: 03 March)

Event Time Altitude Azimuth Distance (km) Brightness Sun altitude
Rises 17:03:35 0° 280° (W) 2,665 7.5 -4.7°
Reaches altitude 10° 17:06:06 10° 289° (WNW) 1,375 5.7 -5.1°
Maximum altitude 17:08:28 38° 2° (N) 496 2.5 -5.5°
Drops below altitude 10° 17:10:41 10° 75° (ENE) 1,283 4.0 -5.9°
Enters shadow 17:11:06 - 78° (ENE) 1,488 4.4 -6.0°
